Probability
0 0 1 2 3 3 2 1 0 0 0 0 0 0 0 0 0 0 0 0 0 0 0 0 0 0 0 0 0 0 0 0 0 0 0 0 0 0 0 0 0 0 0
0 0 1 2 2 2 1 0 0 0 0 0 0 0 0 0 0 0 0 0 0 0 0 0 0 0 0 0 0 0 0 0 0 0 0 0 0 0 0 0 0 0 0
0 0 1 1 1 1 1 0 0 0 0 0 0 0 0 0 0 0 0 0 0 0 0 0 1 1 1 0 0 0 0 0 0 0 0 0 0 0 0 0 0 0 0
0 0 0 0 0 0 0 0 0 0 0 0 0 0 0 0 0 0 0 0 0 0 0 0 1 2 2 1 0 0 0 0 0 0 0 0 0 0 0 0 0 0 0
0 0 0 0 0 0 0 0 0 0 0 0 0 0 0 0 0 0 0 0 0 0 0 0 1 2 2 1 0 0 0 0 0 0 0 0 0 0 0 0 0 0 0
0 0 0 0 0 0 0 0 0 0 0 0 0 0 0 0 0 0 0 0 0 0 0 0 0 1 1 1 0 0 0 0 0 0 0 0 0 0 0 0 0 0 0
0 0 0 0 0 0 0 0 0 0 0 0 0 0 0 0 0 0 0 0 0 0 0 0 0 1 2 2 1 0 0 0 0 0 0 0 0 0 0 0 0 0 0
0 0 0 0 0 0 0 0 0 0 0 0 0 0 0 0 0 0 0 0 0 0 0 0 0 1 2 3 2 1 0 0 0 0 0 0 0 0 0 0 0 0 0
0 0 0 0 0 0 0 0 0 0 0 0 0 0 0 0 0 0 0 0 0 0 0 0 0 0 1 2 2 1 0 0 0 0 0 0 0 0 0 0 0 0 0
0 0 0 0 0 0 0 0 0 0 0 0 0 0 0 0 0 0 0 0 0 0 0 0 0 0 0 1 1 1 0 0 0 0 0 0 0 0 0 0 0 0 0
0 0 0 0 0 0 0 0 0 0 0 0 0 0 0 0 0 0 0 0 0 0 0 0 0 0 0 0 0 0 0 0 0 0 0 0 0 0 0 0 0 0 0
0 0 0 0 0 0 0 0 0 0 0 0 0 0 0 0 0 0 0 0 0 0 0 0 0 0 0 0 0 0 0 0 0 0 0 0 0 0 0 0 0 0 0
0 0 0 0 0 0 0 0 0 0 0 0 0 0 0 0 0 0 0 0 0 0 0 0 0 0 0 0 0 0 0 0 0 0 0 0 0 0 0 0 0 0 0
0 0 0 0 0 0 0 0 0 0 0 0 0 0 0 0 0 0 0 0 0 0 0 0 0 0 0 0 0 0 0 0 0 0 0 0 0 0 0 0 0 0 0
0 0 0 0 0 0 0 0 0 0 0 0 0 0 0 0 0 0 0 0 0 0 0 0 0 0 0 0 0 0 0 0 0 0 0 0 0 0 0 0 0 0 0
0 0 0 0 0 0 0 0 0 0 0 0 0 0 0 0 0 0 0 0 0 0 0 0 0 0 0 0 0 0 0 0 0 0 0 0 0 0 0 0 0 0 0
0 0 0 0 0 0 0 0 0 0 0 0 0 0 0 0 0 0 0 0 0 0 0 0 0 0 0 0 0 0 0 0 0 0 0 0 0 0 0 0 0 0 0
0 0 0 0 0 0 0 0 0 0 0 0 0 0 0 0 0 0 0 0 0 0 0 0 0 0 0 0 0 0 0 0 0 0 0 0 0 0 0 0 0 0 0
0 0 0 0 0 0 0 0 0 0 0 0 0 0 0 0 0 0 0 0 0 0 0 0 0 0 0 0 0 0 0 0 0 0 0 0 0 0 0 0 0 0 0
0 0 0 0 0 0 0 0 0 0 0 0 0 0 0 0 0 0 0 0 0 0 0 0 0 0 0 0 0 0 0 0 0 0 0 0 0 0 0 0 0 0 0
0 0 0 0 0 0 0 0 0 0 0 0 0 0 0 0 0 0 0 0 0 0 0 0 0 0 0 0 0 0 0 0 0 0 0 0 0 0 0 0 0 0 0
0 0 0 0 0 0 0 0 0 0 0 0 0 0 0 0 0 0 0 0 0 0 0 0 0 0 0 0 0 0 0 0 0 0 0 0 0 0 0 0 0 0 0
0 0 0 0 0 0 0 0 0 0 0 0 0 0 0 0 0 0 0 0 0 0 0 0 0 0 0 0 0 0 0 0 0 0 0 0 0 0 0 0 0 0 0
0 0 0 0 0 0 0 0 0 0 0 0 0 0 0 0 0 0 0 0 0 0 0 0 0 0 0 0 0 0 0 0 0 0 0 0 0 0 0 0 0 0 0
0 0 0 0 0 0 0 0 0 0 0 0 0 0 0 0 0 0 0 0 0 0 0 0 0 0 0 0 0 0 0 0 0 0 0 0 0 0 0 0 0 0 0
0 0 0 0 0 0 0 0 0 0 0 0 0 0 0 0 0 0 0 0 0 0 0 0 0 0 0 0 0 0 0 0 0 0 0 0 0 0 0 0 0 0 0
Wind_Speed
9 8 6 6 6 7 7 8 8 8 8 9 10 10 10 10 12 11 11 12 13 12 11 11 10 8 7 6 5 5 4 4 4 2 2 3 4 5 4 4 4 3 3
8 8 6 6 6 6 7 7 7 8 9 9 10 10 10 11 11 12 13 13 14 14 13 12 11 9 9 8 7 6 5 4 5 5 3 3 3 4 4 4 3 3 2
8 7 6 6 5 6 7 7 7 7 8 8 9 10 10 10 11 12 13 13 14 14 14 13 12 12 11 8 8 7 5 4 4 6 5 3 3 3 4 3 3 2 2
8 7 7 7 6 6 7 7 6 5 5 7 8 9 10 10 10 11 11 11 12 12 12 12 12 13 13 11 9 8 7 5 5 6 5 4 3 3 4 3 2 1 1
8 7 7 7 6 6 6 5 5 4 4 5 7 7 8 8 9 10 10 10 11 11 11 11 11 13 14 12 9 9 9 7 6 6 5 4 4 5 4 3 3 2 1
8 7 7 8 7 6 5 5 4 3 3 3 5 6 6 6 9 11 11 9 10 12 12 10 11 13 14 15 15 14 13 11 9 7 6 6 6 5 4 5 4 3 2
7 7 7 8 8 6 5 4 4 3 3 2 3 4 5 5 9 10 11 9 10 11 11 11 9 10 13 11 12 13 11 12 12 9 9 8 8 8 8 6 5 4 3
7 7 7 8 7 6 5 5 4 2 2 1 1 3 4 5 7 9 10 9 8 9 10 11 12 11 11 13 11 9 7 6 8 7 8 8 7 8 8 7 6 5 4
7 7 7 7 6 7 6 6 3 2 2 1 1 2 3 3 5 7 9 7 7 8 8 10 12 12 16 17 13 11 8 5 6 8 8 9 12 13 11 8 6 5 2
8 7 7 6 6 7 6 5 3 2 2 1 1 1 2 3 4 6 7 6 8 7 7 9 13 15 18 19 14 13 11 8 8 8 9 10 9 10 11 7 7 5 3
8 7 7 5 5 5 5 4 3 2 1 1 1 1 1 2 3 5 5 6 8 7 6 7 9 17 19 18 14 11 13 12 9 9 7 7 6 5 4 4 3 4 4
7 6 6 5 4 5 4 4 3 1 1 1 1 1 0 1 2 4 5 7 8 8 7 6 9 17 18 18 13 15 19 15 8 8 7 6 6 5 4 5 5 5 4
6 6 5 5 4 4 4 4 4 2 1 1 1 1 1 0 1 3 5 7 9 7 6 11 14 17 16 14 16 19 16 10 9 8 7 6 5 6 6 5 6 7 7
6 6 5 5 5 4 3 3 3 2 1 1 1 1 1 1 1 2 3 5 8 7 8 12 16 16 12 12 14 12 8 8 8 8 7 7 6 6 5 4 4 4 4
5 6 5 4 4 4 4 3 4 3 3 3 2 2 2 2 2 2 2 3 4 6 8 7 7 8 8 8 7 7 7 7 7 7 8 8 7 6 5 4 4 3 3
5 5 4 3 4 4 4 5 6 5 6 6 6 4 3 3 3 3 3 4 7 12 9 8 8 9 9 9 9 8 7 7 7 7 8 8 7 7 6 4 3 4 4
5 5 4 3 3 3 3 4 5 5 4 4 3 4 3 2 3 4 5 6 9 11 7 7 8 9 9 8 8 8 7 7 7 8 8 8 7 7 6 6 5 4 4
4 5 5 3 3 3 3 3 3 3 3 3 2 2 1 1 3 5 7 6 6 6 5 7 7 8 8 9 8 8 8 8 7 7 8 8 7 7 7 6 5 5 5
4 3 3 3 3 3 3 3 3 3 2 2 2 1 1 1 2 4 6 5 5 5 5 6 7 7 8 8 8 8 9 8 8 8 7 8 7 7 7 6 5 8 5
3 6 5 3 3 3 3 3 3 2 2 2 1 1 1 1 1 2 3 4 4 5 5 6 6 7 7 8 8 9 9 8 9 7 7 7 7 7 7 8 7 6 4
3 3 5 3 3 3 3 3 2 2 2 2 2 2 2 1 1 2 2 3 4 5 6 6 6 7 7 7 8 9 10 8 8 7 7 7 7 7 6 6 6 6 5
3 3 3 2 3 3 3 3 2 2 2 2 1 1 1 1 1 2 2 3 3 4 5 6 6 6 7 8 9 9 9 9 8 8 8 8 7 7 7 7 6 6 6
3 3 3 3 3 4 4 3 2 2 2 2 1 1 1 1 1 2 2 3 4 4 4 5 6 6 6 6 7 8 10 9 9 10 10 9 8 8 8 8 8 8 7
3 3 3 3 3 3 3 2 2 2 2 1 1 1 1 1 1 2 3 3 4 4 4 5 6 8 10 8 6 6 6 8 9 9 11 11 10 8 8 8 7 8 7
3 3 3 3 3 3 2 2 1 1 1 2 2 1 1 2 2 2 3 3 4 5 5 6 6 8 11 11 9 8 13 16 14 11 9 9 10 9 9 9 8 8 7
3 3 3 3 3 3 2 2 2 1 1 2 2 2 2 3 3 3 3 4 4 4 5 5 7 9 10 9 12 15 18 18 18 17 11 9 10 9 9 8 9 8 8
Wind_Direction
307 298 284 273 268 262 256 254 245 232 222 215 217 209 206 209 202 197 204 197 195 196 190 186 187 177 172 169 169 169 167 151 160 153 128 137 150 158 152 149 152 158 172
307 304 291 278 276 274 272 267 252 238 223 215 213 208 207 209 202 199 202 198 194 194 191 184 184 179 174 171 172 174 174 164 157 162 150 152 149 158 152 149 143 143 152
311 309 302 292 282 279 279 282 266 247 226 211 208 206 205 206 201 201 201 197 194 193 189 185 181 177 179 175 173 173 169 163 156 154 152 141 131 140 138 132 124 121 131
314 310 306 301 285 281 283 279 272 253 232 213 211 208 206 205 200 200 197 195 193 191 188 185 182 181 181 176 175 173 164 157 154 148 145 140 137 136 138 144 142 137 135
315 309 306 306 293 287 287 282 275 252 244 224 209 209 206 204 197 196 193 190 190 187 184 185 184 177 178 177 174 170 166 164 159 156 154 145 153 158 169 156 154 136 126
311 309 313 316 312 298 289 292 293 272 252 237 209 203 205 209 199 198 194 187 187 184 182 181 176 168 169 171 169 169 170 169 172 169 170 172 176 170 150 149 142 145 192
309 312 316 316 314 304 297 301 298 291 272 240 213 203 203 199 199 195 190 188 188 185 180 175 171 169 166 164 162 163 167 168 170 171 172 179 173 172 159 155 160 154 160
308 312 313 316 314 316 304 297 299 277 267 250 233 211 200 199 197 187 176 181 184 185 181 175 168 167 168 162 158 158 159 166 170 166 169 171 164 159 161 154 143 113 89
305 305 309 311 310 313 311 299 296 300 295 268 252 211 196 193 187 185 176 172 175 178 178 173 167 167 165 158 157 155 146 135 118 125 129 129 132 137 136 124 128 126 126
302 298 298 299 302 304 307 308 303 303 294 305 283 230 200 197 192 188 185 172 171 171 170 168 168 166 165 162 162 159 156 151 134 114 107 106 114 128 133 139 148 142 133
299 298 297 295 300 303 308 311 311 307 312 308 291 271 216 206 194 191 192 177 170 167 169 170 168 162 161 163 163 162 158 147 140 129 120 113 107 109 106 101 114 139 142
303 304 304 306 309 315 317 320 324 304 303 299 308 332 274 202 203 191 189 179 170 169 169 165 160 158 157 158 159 150 142 137 134 132 132 131 128 122 109 99 91 81 80
306 306 307 309 311 314 317 321 323 313 269 284 287 293 296 254 202 188 171 168 164 165 159 153 152 152 151 153 151 146 142 140 142 143 146 141 132 129 122 106 91 87 75
304 308 313 316 319 320 318 313 309 303 289 273 274 272 287 274 193 158 156 148 149 148 142 141 142 143 144 144 144 144 144 149 151 148 139 130 127 129 130 125 120 112 92
304 304 309 311 312 315 317 309 305 292 271 270 257 236 235 245 216 192 178 165 163 154 142 137 140 146 148 144 141 141 140 141 138 135 137 137 137 133 130 127 124 119 111
302 303 306 312 313 317 324 331 327 307 310 295 280 273 270 229 207 191 180 163 157 152 145 149 154 155 155 154 152 147 146 149 145 142 142 143 144 143 139 135 129 124 125
290 295 301 305 307 311 317 323 328 341 334 306 291 291 263 202 186 174 158 155 152 151 150 155 158 158 155 154 153 152 151 150 145 145 144 145 145 144 143 143 139 128 126
290 293 297 295 298 301 301 300 302 310 319 335 342 325 302 205 180 167 155 143 147 149 151 154 156 153 152 152 153 149 145 145 146 146 146 147 148 147 147 149 148 144 139
290 293 293 293 295 295 296 297 297 294 290 304 335 3 20 102 158 169 160 156 155 155 151 150 149 148 149 150 151 150 149 150 150 149 149 148 149 148 147 147 145 144 136
285 290 297 294 294 297 297 297 296 291 287 284 288 297 15 63 115 147 154 154 153 152 150 148 147 145 147 149 149 148 147 147 149 149 148 147 147 148 147 146 147 147 144
284 287 294 293 289 288 289 287 286 280 271 267 269 262 267 221 167 155 156 153 152 150 149 147 146 147 147 147 148 148 146 147 149 148 146 145 145 143 141 140 141 138 134
280 280 281 280 281 282 284 277 270 265 260 255 259 253 244 205 160 148 143 140 139 144 148 146 147 151 154 154 152 150 150 150 150 148 144 142 142 140 137 137 137 137 136
282 282 286 284 280 281 282 271 254 245 249 241 208 192 182 169 161 145 137 136 133 135 139 141 142 144 144 144 150 154 155 157 156 152 146 144 143 141 141 142 144 143 142
282 278 278 281 280 272 268 267 248 231 222 210 190 178 170 154 141 134 128 126 129 131 135 139 143 145 144 142 141 142 142 141 142 145 146 144 141 140 139 139 140 142 142
279 276 274 274 276 274 275 269 239 216 212 188 168 159 147 139 134 128 122 124 127 131 134 136 139 142 145 145 145 143 141 139 139 138 138 137 137 138 138 137 137 139 140
282 281 278 273 271 268 261 248 226 206 192 177 162 157 150 142 136 131 128 125 124 129 132 132 136 139 142 143 143 142 141 141 140 138 135 135 136 138 137 134 137 139 139